Hartford, CT

2:09 AM EST on December 12, 2017 (GMT -0500)
Hartford-brainard

Weather History for KHFD - January, 2013

Change the Weather History Date:

Saturday, January 26, 2013

  Actual Average Record
Temperature  
Mean Temperature 18 °F -  
Max Temperature 25 °F 37 °F 65 °F (1950)
Min Temperature 12 °F 19 °F -8 °F (1948)
Degree Days  
Heating Degree Days 46    
Moisture  
Dew Point 7 °F    
Average Humidity 63    
Maximum Humidity 88    
Minimum Humidity 37    
Precipitation  
Precipitation 0.00 in - - ()
Sea Level Pressure  
Sea Level Pressure 30.13 in    
Wind  
Wind Speed 6 mph (NNW)    
Max Wind Speed 14 mph    
Max Gust Speed 25 mph    
Visibility 10 miles    
Events Snow    
Averages and records for this station are not official NWS values.
T = Trace of Precipitation, MM = Missing Value Source: NWS Daily Summary

Daily Weather History Graph

Daily Weather History Graph

Search for Another Location

Airport or City:

Trip Planner

Search our weather history database for the weather conditions in past years. The results will help you decide how hot, cold, wet, or windy it might be!

Date:

Astronomy

Jan. 26, 2013 Rise Set
Actual Time 7:08 AM EST 4:58 PM EST
Civil Twilight 6:38 AM EST 5:28 PM EST
Nautical Twilight 6:04 AM EST 6:02 PM EST
Astronomical Twilight 5:31 AM EST 6:35 PM EST
Moon 4:51 PM EST (1/26) 6:23 AM EST (1/26)
Length of Visible Light 10h 50m
Length of Day
9h 50m
Full, 100% of the Moon is Illuminated
Jan 26
Full
Jan 26
Full
Feb 3
Last Quarter
Feb 10
New
Feb 17
First Quarter

Hourly Weather History & Observations

Time (EST) Temp. Windchill Dew Point Humidity Pressure Visibility Wind Dir Wind Speed Gust Speed Precip Events Conditions
12:04 AM 17.6 °F 12.3 °F 14.0 °F 86% 30.07 in 3.0 mi North 3.5 mph - 0.00 in Snow Light Snow
12:37 AM 17.6 °F 12.3 °F 14.0 °F 86% 30.06 in 10.0 mi North 3.5 mph - 0.00 in   Scattered Clouds
12:53 AM 17.1 °F 11.7 °F 12.9 °F 84% 30.06 in 10.0 mi North 3.5 mph - 0.00 in   Clear
1:09 AM 15.8 °F 10.2 °F 12.2 °F 86% 30.06 in 10.0 mi North 3.5 mph - N/A   Scattered Clouds
1:53 AM 16.0 °F 10.4 °F 12.9 °F 88% 30.05 in 10.0 mi North 3.5 mph - N/A   Partly Cloudy
2:19 AM 15.8 °F 8.6 °F 12.2 °F 86% 30.05 in 10.0 mi North 4.6 mph - N/A   Mostly Cloudy
2:53 AM 15.1 °F 9.4 °F 12.0 °F 88% 30.05 in 10.0 mi North 3.5 mph - N/A   Mostly Cloudy
3:09 AM 15.8 °F 10.2 °F 10.4 °F 79% 30.04 in 10.0 mi North 3.5 mph - N/A   Scattered Clouds
3:53 AM 15.1 °F - 10.9 °F 84% 30.04 in 10.0 mi Calm Calm - N/A   Clear
4:53 AM 14.0 °F - 8.1 °F 77% 30.05 in 10.0 mi Calm Calm - N/A   Clear
5:53 AM 12.9 °F 5.2 °F 7.0 °F 77% 30.06 in 10.0 mi NNW 4.6 mph - N/A   Clear
6:53 AM 12.9 °F 5.2 °F 6.1 °F 74% 30.09 in 10.0 mi NNW 4.6 mph - N/A   Clear
7:53 AM 12.9 °F 3.8 °F 7.0 °F 77% 30.11 in 10.0 mi North 5.8 mph - N/A   Clear
8:53 AM 15.1 °F 6.4 °F 7.0 °F 70% 30.13 in 10.0 mi NNW 5.8 mph - N/A   Clear
9:53 AM 18.0 °F 9.8 °F 7.0 °F 62% 30.13 in 10.0 mi North 5.8 mph - N/A   Clear
10:53 AM 19.9 °F 7.3 °F 6.1 °F 55% 30.13 in 10.0 mi North 12.7 mph - N/A   Clear
11:53 AM 23.0 °F 11.7 °F 8.1 °F 53% 30.11 in 10.0 mi NNW 11.5 mph - N/A   Clear
12:53 PM 25.0 °F 15.5 °F 8.1 °F 49% 30.09 in 10.0 mi NW 9.2 mph - N/A   Partly Cloudy
1:53 PM 25.0 °F 14.2 °F 6.1 °F 45% 30.08 in 10.0 mi NW 11.5 mph 16.1 mph N/A   Clear
2:53 PM 25.0 °F 13.6 °F 1.9 °F 37% 30.11 in 10.0 mi NNW 12.7 mph 21.9 mph N/A   Clear
3:53 PM 24.1 °F 12.0 °F 1.0 °F 37% 30.14 in 10.0 mi NW 13.8 mph 25.3 mph N/A   Clear
4:53 PM 21.9 °F 9.8 °F -0.0 °F 38% 30.17 in 10.0 mi NNW 12.7 mph 23.0 mph N/A   Clear
5:53 PM 21.0 °F 9.3 °F 1.0 °F 42% 30.19 in 10.0 mi NNW 11.5 mph 16.1 mph N/A   Mostly Cloudy
6:53 PM 21.0 °F 9.9 °F 1.0 °F 42% 30.22 in 10.0 mi NW 10.4 mph 16.1 mph N/A   Partly Cloudy
7:53 PM 19.9 °F 9.3 °F 1.0 °F 44% 30.24 in 10.0 mi NW 9.2 mph - N/A   Clear
8:53 PM 19.0 °F 8.2 °F 1.0 °F 46% 30.26 in 10.0 mi NW 9.2 mph - N/A   Clear
9:53 PM 18.0 °F 8.7 °F 1.0 °F 48% 30.29 in 10.0 mi NNW 6.9 mph - N/A   Clear
10:53 PM 17.1 °F 6.6 °F 1.0 °F 50% 30.31 in 10.0 mi NNW 8.1 mph - N/A   Clear
11:53 PM 17.1 °F 10.0 °F 1.0 °F 50% 30.33 in 10.0 mi NW 4.6 mph - N/A   Clear